Retour au catalogue

STARLINK-11443

ActifCommunicationsVLEO
NORAD 62512·PAYLOAD·🇺🇸 United States

Lancé Jan 8, 2025 depuis Cape Canaveral Space Force Station

Loading…

Prochains Passages (prochaines 24 heures)

TLE

FraisSource: CelesTrak SupGP

Époque: Sep 14, 2026, 22:37 UTC

1 62512C 25004B   26257.94284722  .00004235  00000+0  32879-4 0  2570
2 62512  43.0009  10.3934 0001671 269.1020 265.1963 15.70847807    19

Suivez STARLINK-11443 en temps réel avec AllMySat

Download on the App Store